[[{"header":{"parameterUnit":"m.s-1","parameterCategory":1,"la1":30.2991,"la2":30.254,"lo1":-89.0895,"lo2":-89.0444,"dy":0.0017,"dx":0.0017,"nx":28,"ny":28,"refTime":"2025-03-28T21:00:00:Z","depth":0,"parameterNumber":2,"parameterNumberName":"U-component_of_WINDS"},"data":[0,0,0,0,0,0,0,0,0,0,0,0,0,0,0,0,0,0,0,0,0,0,0,0,0,0,0,0,0,0,0,0,0,0,0,0,0,0,0,0,0,0,0,0,0,0,0,0,0,0,0,0,0,0,0,0,0,0,-6.6291,-6.6293,0,-6.643,-6.6431,-6.6433,-6.6421,-6.6419,-6.6417,-6.6415,-6.6552,-6.6557,-6.6563,0,0,0,0,0,0,0,0,0,0,0,0,0,-6.6012,-6.6018,-6.6291,-6.6293,-6.6294,-6.643,-6.6432,-6.6433,-6.6422,-6.6419,-6.6417,-6.6414,-6.655,-6.6557,-6.6563,0,0,0,0,0,0,0,0,0,0,0,0,0,-6.614,-6.6019,-6.6291,-6.6305,-6.6308,-6.6429,-6.6432,-6.6434,-6.6422,-6.6419,-6.6416,-6.6413,-6.6548,-6.6556,-6.6564,-6.6679,0,0,-6.659,-6.6594,0,0,0,0,0,0,0,0,-6.6133,-6.6151,-6.6301,-6.6304,-6.6307,-6.6405,-6.6384,-6.6516,-6.6423,-6.6379,-6.6415,-6.6411,-6.6505,-6.6517,-6.655,-6.6685,-6.6691,-6.6591,-6.6596,-6.6599,-6.6602,0,0,0,0,0,0,0,-6.6124,-6.6145,-6.6346,-6.6303,-6.6307,-6.6303,-6.6318,-6.6409,-6.6458,-6.6382,-6.6382,-6.6399,-6.6506,-6.6542,-6.6553,-6.6693,-6.6591,-6.6598,-6.6603,-6.6606,-6.6931,-6.6934,0,0,0,0,0,0,-6.6113,-6.6137,-6.6341,-6.635,-6.6211,-6.6311,-6.6328,-6.6377,-6.6457,-6.6466,-6.6401,-6.6397,-6.6529,-6.6543,-6.6558,-6.6697,-6.6599,-6.6607,-6.6612,-6.6927,-6.6931,-6.6935,0,0,0,0,0,0,-6.6107,-6.6131,-6.6336,-6.6244,-6.6269,-6.6319,-6.6375,-6.6381,-6.6416,-6.6471,-6.6479,-6.6428,-6.6527,-6.6546,-6.6649,-6.6701,-6.6611,-6.6619,-6.6923,-6.6928,-6.6933,-6.6975,0,0,0,0,0,0,-6.6099,-6.6129,-6.6173,-6.6245,-6.6274,-6.6426,-6.6378,-6.6386,-6.6432,-6.6428,-6.6499,-6.6507,-6.6526,-6.6637,-6.6658,-6.6711,-6.6625,-6.6918,-6.6925,-6.6932,-6.6969,-6.6981,-6.6992,0,0,0,0,0,-6.6089,-6.6178,-6.6176,-6.62,-6.6331,-6.6429,-6.6446,-6.6467,-6.6436,-6.648,-6.6516,-6.6505,-6.6693,-6.6648,-6.6671,-6.6727,-6.6915,-6.6923,-6.6931,-6.6964,-6.6979,-6.6992,0,0,0,0,0,0,-6.6109,-6.6188,-6.6186,-6.6301,-6.6359,-6.6427,-6.6483,-6.6482,-6.6548,-6.6541,-6.6564,-6.658,-6.6684,-6.6717,-6.6665,-6.6843,-6.68,-6.6813,-6.6817,-6.6832,-6.6842,-6.6831,-6.6632,0,0,0,0,0,-6.6128,-6.6202,-6.6266,-6.6362,-6.6391,-6.6433,-6.6476,-6.6488,-6.6548,-6.6571,-6.6614,-6.6671,-6.6743,-6.679,-6.6859,-6.6976,-6.699,-6.7026,-6.7038,-6.7046,-6.7056,-6.712,-6.7136,-6.6962,-6.6962,-6.6962,0,0,-6.6165,-6.6218,-6.6262,-6.6367,-6.6413,-6.6488,-6.6453,-6.6534,-6.6589,-6.6583,-6.6683,-6.6718,-6.6783,-6.6893,-6.6944,-6.6924,-6.7109,-6.7057,-6.7063,-6.7068,-6.713,-6.7146,-6.7161,-6.6967,-6.6966,-6.6965,0,0,-6.6271,-6.632,-6.6404,-6.6452,-6.6523,-6.6551,-6.6572,-6.6641,-6.6664,-6.6766,-6.6763,-6.683,-6.6953,-6.7,-6.704,-6.7169,-6.716,-6.7191,-6.7247,-6.7309,-6.7323,-6.7335,-6.7379,-6.7395,-6.7201,-6.7201,-6.7201,0,-6.6308,-6.6423,-6.6448,-6.653,-6.6576,-6.6577,-6.6663,-6.6707,-6.6797,-6.6828,-6.6805,-6.6962,-6.7006,-6.7127,-6.7159,-6.7192,-6.7215,-6.718,-6.7319,-6.7332,-6.7343,-6.7385,-6.7402,-6.7204,-6.7204,-6.7204,-6.7203,0,-6.6464,-6.6544,-6.6603,-6.6692,-6.6745,-6.6829,-6.6866,-6.6916,-6.6925,-6.6955,-6.7059,-6.7113,-6.7193,-6.7224,-6.7232,-6.7347,-6.7332,-6.7314,-6.727,-6.7363,-6.7402,-6.7419,-6.7209,-6.7207,-6.7207,-6.7206,0,0,-6.6582,-6.6687,-6.6708,-6.6748,-6.6829,-6.689,-6.6974,-6.7055,-6.7097,-6.7161,-6.723,-6.7337,-6.7322,-6.7367,-6.7381,-6.7436,-6.7533,-6.7411,-6.7413,-6.743,-6.7661,-6.7672,-6.769,-6.753,-6.7533,-6.7536,-6.7655,0,-6.6695,-6.6844,-6.6871,-6.7001,-6.7074,-6.7079,-6.7152,-6.7209,-6.724,-6.7306,-6.734,-6.7415,-6.739,-6.7418,-6.7473,-6.7509,-6.7579,-6.7502,-6.7593,-6.7596,-6.7572,-6.7711,-6.7723,-6.7832,-6.7671,-6.7674,-6.7676,0,-6.6844,-6.6913,-6.7051,-6.7123,-6.7155,-6.722,-6.7297,-6.7361,-6.7426,-6.7445,-6.7498,-6.7507,-6.7593,-6.7549,-6.7668,-6.7615,-6.7655,-6.7679,-6.7684,-6.769,-6.7638,-6.7718,-6.7868,-6.7883,-6.7701,-6.7699,-6.7697,0,-6.6914,-6.7042,-6.7141,-6.7176,-6.7263,-6.7308,-6.7347,-6.7409,-6.7456,-6.7524,-6.7555,-6.7631,-6.7672,-6.773,-6.7759,-6.7725,-6.7876,-6.7834,-6.7892,-6.7891,-6.7919,-6.7916,-6.8074,-6.7951,-6.7951,-6.795,-6.795,0,-6.7035,-6.7118,-6.7173,-6.7234,-6.7328,-6.7359,-6.745,-6.7488,-6.7544,-6.7611,-6.762,-6.7683,-6.7719,-6.7786,-6.781,-6.7904,-6.7923,-6.7939,-6.7944,-6.7937,-6.7934,-6.796,-6.7951,-6.7955,-6.7954,-6.7953,-6.7952,0,-6.7126,-6.7167,-6.7275,-6.735,-6.7371,-6.7437,-6.75,-6.7559,-6.7592,-6.7677,-6.7699,-6.775,-6.783,-6.7866,-6.7965,-6.7981,-6.8088,-6.8088,-6.8066,-6.8066,-6.8121,-6.8114,-6.8298,-6.8323,-6.8186,-6.8187,-6.8188,0,-6.7199,-6.7263,-6.7346,-6.7393,-6.7433,-6.7508,-6.7557,-6.7591,-6.7642,-6.7722,-6.7771,-6.7853,-6.7919,-6.8048,-6.8093,-6.8169,-6.8169,-6.8229,-6.818,-6.8171,-6.8167,-6.8161,-6.8167,-6.8235,-6.8237,-6.8238,-6.8239,0,-6.7322,-6.734,-6.7411,-6.7491,-6.755,-6.7613,-6.7676,-6.7713,-6.7757,-6.7813,-6.7897,-6.7949,-6.8052,-6.8131,-6.8211,-6.8249,-6.8251,-6.8255,-6.8272,-6.8263,-6.8246,-6.8253,-6.8086,-6.8249,-6.8248,-6.8247,-6.8247,-6.8246,-6.7405,-6.7463,-6.7531,-6.761,-6.7661,-6.772,-6.7779,-6.7821,-6.7892,-6.7978,-6.7995,-6.8083,-6.8148,-6.8256,-6.8297,-6.8366,-6.8352,-6.8377,-6.8382,-6.8387,-6.8389,-6.8239,-6.8381,-6.8381,-6.8381,-6.8381,-6.8381,0,-6.7527,-6.7572,-6.7645,-6.7733,-6.7795,-6.7796,-6.7865,-6.7917,-6.7995,-6.8057,-6.8123,-6.822,-6.8298,-6.8351,-6.8431,-6.8476,-6.8479,-6.8496,-6.849,-6.8499,-6.8399,-6.8375,-6.8492,-6.8492,-6.8492,-6.8492,-6.8492,-6.8492,-6.7597,-6.7695,-6.7721,-6.7845,-6.7889,-6.7977,-6.8017,-6.8071,-6.812,-6.8227,-6.8294,-6.8329,-6.8387,-6.8471,-6.8543,-6.8557,-6.8584,-6.8601,-6.8614,-6.8518,-6.8506,-6.8495,-6.8472,-6.8608,-6.8608,-6.8708,-6.8709,-6.871]},{"header":{"parameterUnit":"m.s-1","parameterCategory":1,"la1":30.2991,"la2":30.254,"lo1":-89.0895,"lo2":-89.0444,"dy":0.0017,"dx":0.0017,"nx":28,"ny":28,"refTime":"2025-03-28T21:00:00:Z","depth":0,"parameterNumber":3,"parameterNumberName":"V-component_of_WINDS"},"data":[0,0,0,0,0,0,0,0,0,0,0,0,0,0,0,0,0,0,0,0,0,0,0,0,0,0,0,0,0,0,0,0,0,0,0,0,0,0,0,0,0,0,0,0,0,0,0,0,0,0,0,0,0,0,0,0,0,0,4.1294,4.1294,0,4.1354,4.1354,4.1355,4.1333,4.1331,4.133,4.1329,4.1387,4.139,4.1393,0,0,0,0,0,0,0,0,0,0,0,0,0,4.1159,4.1161,4.1294,4.1294,4.1295,4.1353,4.1354,4.1355,4.1333,4.1331,4.133,4.1328,4.1386,4.1389,4.1393,0,0,0,0,0,0,0,0,0,0,0,0,0,4.1218,4.1162,4.1293,4.1291,4.1291,4.1353,4.1354,4.1355,4.1333,4.1331,4.1329,4.1327,4.1385,4.1389,4.1393,4.146,0,0,4.1406,4.1408,0,0,0,0,0,0,0,0,4.1215,4.1223,4.1291,4.1291,4.1292,4.1334,4.1328,4.139,4.1334,4.1317,4.1329,4.1326,4.1371,4.1376,4.1392,4.1463,4.1465,4.1407,4.1409,4.1411,4.1412,0,0,0,0,0,0,0,4.121,4.122,4.1317,4.1292,4.1292,4.1287,4.1293,4.134,4.1355,4.1319,4.1317,4.1325,4.1371,4.1388,4.1393,4.1466,4.1407,4.141,4.1413,4.1415,4.1598,4.16,0,0,0,0,0,0,4.1206,4.1217,4.1315,4.1319,4.1248,4.1291,4.1298,4.1322,4.1354,4.1357,4.1326,4.1323,4.1381,4.1388,4.1395,4.1477,4.1411,4.1415,4.1417,4.1596,4.1598,4.1601,0,0,0,0,0,0,4.1204,4.1215,4.1313,4.1268,4.128,4.1295,4.1323,4.1324,4.1341,4.136,4.1362,4.1341,4.138,4.1389,4.1445,4.1479,4.1417,4.1421,4.1593,4.1597,4.16,4.1641,0,0,0,0,0,0,4.12,4.1214,4.124,4.1268,4.1282,4.1362,4.1325,4.1327,4.1349,4.1346,4.1374,4.1377,4.1379,4.1439,4.1449,4.1483,4.1424,4.159,4.1595,4.1599,4.1636,4.1645,4.1653,0,0,0,0,0,4.1195,4.1248,4.1241,4.1253,4.1315,4.1364,4.1372,4.1374,4.1352,4.1378,4.139,4.1376,4.1473,4.1445,4.1456,4.1492,4.1588,4.1593,4.1598,4.1633,4.1643,4.1652,0,0,0,0,0,0,4.1221,4.1251,4.1245,4.1308,4.1334,4.136,4.1393,4.1385,4.1417,4.1412,4.1413,4.1419,4.1478,4.149,4.1458,4.156,4.1527,4.1535,4.1549,4.156,4.1568,4.1563,4.1428,0,0,0,0,0,4.1235,4.1273,4.1297,4.1351,4.1365,4.1377,4.1398,4.1398,4.1425,4.1435,4.1451,4.1477,4.1513,4.1537,4.1571,4.1638,4.1645,4.1669,4.1677,4.1683,4.169,4.1729,4.174,4.1618,4.1618,4.1618,0,0,4.1262,4.1284,4.1308,4.1357,4.1377,4.1417,4.1386,4.1429,4.1459,4.1441,4.1496,4.1509,4.1537,4.16,4.1628,4.1612,4.1726,4.169,4.1695,4.1698,4.1735,4.1747,4.1757,4.1622,4.1621,4.1621,0,0,4.1334,4.1353,4.1401,4.1423,4.1454,4.1462,4.1474,4.1503,4.1511,4.1566,4.1555,4.159,4.1652,4.1674,4.1693,4.1775,4.1764,4.1786,4.1829,4.1866,4.1876,4.1885,4.1915,4.1926,4.1793,4.1793,4.1793,0,4.1364,4.1424,4.1427,4.1472,4.1495,4.1483,4.1532,4.1552,4.1593,4.1609,4.1591,4.167,4.1688,4.1757,4.1778,4.1793,4.1807,4.1783,4.1875,4.1883,4.1891,4.1921,4.1932,4.1796,4.1796,4.1795,4.1795,0,4.1461,4.1503,4.1538,4.158,4.1606,4.1653,4.1663,4.169,4.1688,4.1698,4.1755,4.1777,4.1817,4.1833,4.183,4.1902,4.1891,4.1874,4.1841,4.1905,4.1933,4.1944,4.18,4.1799,4.1798,4.1797,0,0,4.1548,4.1593,4.1606,4.1626,4.1661,4.1694,4.1741,4.1781,4.1805,4.1833,4.1873,4.1928,4.1913,4.1935,4.1935,4.1967,4.2034,4.1946,4.1947,4.1963,4.2116,4.2129,4.2142,4.2027,4.2029,4.2031,4.2114,0,4.1623,4.1707,4.1712,4.1788,4.1828,4.1818,4.1859,4.1885,4.1897,4.1932,4.1944,4.1983,4.196,4.1973,4.2005,4.2019,4.2065,4.2013,4.2064,4.2066,4.2058,4.2156,4.217,4.2248,4.2124,4.2126,4.2128,0,4.1722,4.1756,4.1837,4.1869,4.1885,4.1922,4.1961,4.1995,4.2025,4.2031,4.2057,4.2053,4.2101,4.2067,4.2135,4.21,4.2121,4.2131,4.2134,4.2139,4.2101,4.2165,4.2272,4.2284,4.2144,4.2143,4.2142,0,4.178,4.1846,4.1903,4.192,4.1959,4.1985,4.2002,4.203,4.2055,4.2089,4.2105,4.2143,4.2164,4.2194,4.2201,4.2175,4.2269,4.2235,4.2276,4.2276,4.2296,4.2295,4.2409,4.2308,4.2308,4.2308,4.2308,0,4.1864,4.1914,4.1931,4.1966,4.2022,4.2027,4.2082,4.2098,4.2123,4.2161,4.2154,4.219,4.2197,4.2234,4.224,4.2296,4.2305,4.2311,4.2312,4.2313,4.2312,4.2327,4.2322,4.2311,4.231,4.231,4.2309,0,4.1938,4.1951,4.2013,4.2046,4.2055,4.2095,4.2122,4.2156,4.2168,4.2216,4.2228,4.2245,4.2289,4.2299,4.2351,4.2355,4.2422,4.2417,4.2412,4.2412,4.2453,4.2449,4.2581,4.2599,4.2486,4.2487,4.2488,0,4.1991,4.203,4.2067,4.2093,4.2112,4.2153,4.2179,4.2187,4.2214,4.2253,4.2282,4.2326,4.2361,4.2432,4.2449,4.2489,4.2485,4.2529,4.2491,4.2491,4.2488,4.2486,4.249,4.2536,4.2537,4.2538,4.2539,0,4.2085,4.209,4.2128,4.217,4.2202,4.2235,4.2266,4.2287,4.2299,4.233,4.2376,4.2404,4.2458,4.2501,4.2542,4.2559,4.2552,4.2551,4.2563,4.2564,4.256,4.2564,4.2433,4.2548,4.2547,4.2546,4.2546,4.2546,4.2151,4.2186,4.2218,4.2262,4.2287,4.2317,4.2351,4.2368,4.2407,4.2452,4.2454,4.2505,4.2535,4.2589,4.2609,4.2648,4.2635,4.2651,4.2656,4.266,4.2665,4.2554,4.2655,4.2655,4.2655,4.2655,4.2655,0,4.2245,4.2266,4.2307,4.2352,4.2387,4.2378,4.2413,4.2442,4.2487,4.2517,4.2553,4.2606,4.2649,4.2671,4.2713,4.2741,4.2739,4.2752,4.275,4.2755,4.2674,4.266,4.2753,4.2753,4.2753,4.2753,4.2753,4.2753,4.2299,4.2358,4.2367,4.2439,4.246,4.251,4.2531,4.2559,4.2583,4.2644,4.268,4.2695,4.2721,4.2766,4.2806,4.2811,4.2827,4.2843,4.2846,4.277,4.276,4.2751,4.2738,4.2846,4.2846,4.2924,4.2925,4.2926]}]]